This is the latest recevied weather packets stored in our database for station/object N8GD. If no packets are shown the sender has not sent any weather packets the latest 10 day(s).
| Time | Temp. | Humidity | Pressure | Rain* | Wind** | Luminosity | Snow |
|---|---|---|---|---|---|---|---|
| 1778031463 | 19.44° C | 59% | 1006.7 hPa | 0 mm | - | - | - |
| 1778030562 | 19.44° C | 59% | 1006.6 hPa | 0 mm | - | - | - |
| 1778029663 | 19.44° C | 57% | 1006.5 hPa | 0 mm | - | - | - |
| 1778028763 | 19.44° C | 57% | 1006.5 hPa | 0 mm | - | - | - |
| 1778027863 | 20° C | 57% | 1006.8 hPa | 0 mm | - | - | - |
| 1778026963 | 20° C | 56% | 1006.7 hPa | 0 mm | - | - | - |
| 1778026062 | 20° C | 57% | 1006.8 hPa | 0 mm | - | - | - |
| 1778025164 | 20.56° C | 58% | 1006.8 hPa | 0 mm | - | - | - |
| 1778024262 | 20.56° C | 59% | 1006.7 hPa | 0 mm | - | - | - |
| 1778023363 | 20.56° C | 58% | 1006.5 hPa | 0 mm | - | - | - |
| 1778022462 | 21.11° C | 57% | 1006.5 hPa | 0 mm | - | - | - |
| 1778021563 | 20.56° C | 58% | 1006.7 hPa | 0 mm | - | - | - |
| 1778020663 | 20.56° C | 59% | 1006.8 hPa | 0 mm | - | - | - |
| 1778019763 | 21.11° C | 59% | 1006.9 hPa | 0 mm | - | - | - |
| 1778018863 | 21.11° C | 57% | 1006.9 hPa | 0 mm | - | - | - |
| 1778017963 | 21.11° C | 57% | 1006.9 hPa | 0 mm | - | - | - |
| 1778017063 | 21.11° C | 57% | 1007.1 hPa | 0 mm | - | - | - |
| 1778016163 | 21.11° C | 58% | 1007 hPa | 0 mm | - | - | - |
| 1778015263 | 21.67° C | 56% | 1006.9 hPa | 0 mm | - | - | - |
| 1778014363 | 21.11° C | 58% | 1007.2 hPa | 0 mm | - | - | - |
| 1778013463 | 21.11° C | 57% | 1007.2 hPa | 0 mm | - | - | - |
| 1778012563 | 21.11° C | 56% | 1007.1 hPa | 0 mm | - | - | - |
| 1778011663 | 21.67° C | 58% | 1007.3 hPa | 0 mm | - | - | - |
| 1778010763 | 21.11° C | 58% | 1007.4 hPa | 0 mm | - | - | - |
| 1778010708 | 21.11° C | 58% | 1007.4 hPa | 0 mm | - | - | - |
* Rain latest hour (hover to see other rain measurements)
** Current wind speed in m/s (hover to see current wind gust speed)